WGS F2 (USA 204)

Last updated on June 27, 2019, 3:44 a.m. UTC

1 34713U 09017A   19177.90334727  .00000055  00000-0  00000+0 0  9994
2 34713   0.0181  16.6908 0000329 216.1943  67.2730  1.00271497 37398
UTC
Height (km)
Latitude
Longitude
Inclination
Orbital Period
UTC large
Height (km)
Speed (km/s)
/
Latitude / Longitude
Inclination (degrees)
Orbital Period (minutes)
Azimuth
Elevation
Range (km)
Doppler Factor
iOS Compass Heading
iOS Angle

Next 30 passes for location: Hong Kong

Rise time Rise Azimuth (degrees) Set time Set Azimuth (degrees) Duration Max altitude (degrees)

No matching passes for this satellites